| time (UTC) | temp C | wind direction | speed KPH | gust KPH | rain 1hr cm | rain 24hr cm | rain mn cm | humidity % | barometer mb |
| 20260510045250 | 23 | 214 | 0.0 | 0.0 | 0.00 | 0.36 | 0.36 | 84 | 1011.4 |
| 20260510044747 | 23 | 199 | 0.0 | 1.6 | 0.00 | 0.36 | 0.36 | 84 | 1011.4 |
| 20260510044245 | 24 | 194 | 0.0 | 0.0 | 0.00 | 0.36 | 0.36 | 84 | 1011.3 |
| 20260510043740 | 24 | 186 | 1.6 | 1.6 | 0.00 | 0.36 | 0.36 | 84 | 1011.2 |
| 20260510043237 | 24 | 193 | 0.0 | 0.0 | 0.00 | 0.36 | 0.36 | 83 | 1011.2 |
| 20260510042734 | 25 | 185 | 0.0 | 1.6 | 0.00 | 0.36 | 0.36 | 83 | 1011.3 |
| 20260510042229 | 25 | 177 | 0.0 | 1.6 | 0.00 | 0.36 | 0.36 | 82 | 1011.1 |
| 20260510041727 | 25 | 176 | 1.6 | 1.6 | 0.00 | 0.36 | 0.36 | 80 | 1011.3 |
| 20260510041224 | 25 | 190 | 0.0 | 1.6 | 0.00 | 0.36 | 0.36 | 79 | 1011.1 |
| 20260510040721 | 25 | 194 | 0.0 | 0.0 | 0.00 | 0.36 | 0.36 | 79 | 1011.0 |
| 20260510040217 | 25 | 190 | 0.0 | 0.0 | 0.00 | 0.36 | 0.36 | 79 | 1011.1 |
| 20260510035713 | 25 | 207 | 0.0 | 1.6 | 0.00 | 0.36 | 0.36 | 79 | 1011.1 |
| 20260510035209 | 25 | 176 | 0.0 | 1.6 | 0.00 | 0.36 | 0.36 | 79 | 1011.0 |
| 20260510034705 | 25 | 209 | 0.0 | 1.6 | 0.00 | 0.36 | 0.36 | 79 | 1010.6 |
| 20260510034203 | 25 | 189 | 1.6 | 1.6 | 0.00 | 0.36 | 0.36 | 81 | 1010.7 |
| 20260510033659 | 25 | 199 | 0.0 | 0.0 | 0.00 | 0.36 | 0.36 | 83 | 1010.8 |
| 20260510033157 | 25 | 221 | 0.0 | 0.0 | 0.00 | 0.36 | 0.36 | 83 | 1010.8 |
| 20260510032653 | 25 | 221 | 0.0 | 0.0 | 0.00 | 0.36 | 0.36 | 82 | 1010.7 |
| 20260510032148 | 25 | 221 | 0.0 | 0.0 | 0.00 | 0.36 | 0.36 | 81 | 1010.7 |
| 20260510031643 | 25 | 221 | 0.0 | 0.0 | 0.00 | 0.36 | 0.36 | 81 | 1010.5 |
| 20260510031141 | 25 | 221 | 0.0 | 0.0 | 0.00 | 0.36 | 0.36 | 80 | 1010.6 |
| 20260510030640 | 26 | 221 | 0.0 | 0.0 | 0.00 | 0.36 | 0.36 | 79 | 1010.3 |
| 20260510030138 | 26 | 220 | 0.0 | 0.0 | 0.00 | 0.36 | 0.36 | 78 | 1010.5 |
| 20260510025635 | 26 | 214 | 0.0 | 1.6 | 0.00 | 0.36 | 0.36 | 78 | 1010.2 |
| 20260510025132 | 26 | 190 | 0.0 | 1.6 | 0.00 | 0.36 | 0.36 | 78 | 1010.3 |
| 20260510024629 | 26 | 196 | 0.0 | 1.6 | 0.00 | 0.36 | 0.36 | 77 | 1010.2 |
| 20260510024126 | 26 | 181 | 3.2 | 4.8 | 0.00 | 0.36 | 0.36 | 77 | 1010.0 |
| 20260510023622 | 27 | 205 | 1.6 | 1.6 | 0.00 | 0.36 | 0.36 | 77 | 1010.4 |
| 20260510023119 | 27 | 217 | 0.0 | 4.8 | 0.00 | 0.36 | 0.36 | 77 | 1010.0 |
| 20260510022619 | 27 | 177 | 4.8 | 4.8 | 0.00 | 0.36 | 0.36 | 77 | 1010.0 |
| 20260510022114 | 27 | 210 | 3.2 | 4.8 | 0.00 | 0.36 | 0.36 | 77 | 1009.7 |
| 20260510021610 | 27 | 126 | 1.6 | 3.2 | 0.00 | 0.36 | 0.36 | 78 | 1009.8 |
| 20260510021109 | 27 | 186 | 1.6 | 3.2 | 0.00 | 0.36 | 0.36 | 77 | 1009.9 |
| 20260510020607 | 27 | 202 | 3.2 | 3.2 | 0.00 | 0.36 | 0.36 | 77 | 1010.0 |
| 20260510020103 | 27 | 165 | 3.2 | 4.8 | 0.00 | 0.36 | 0.36 | 77 | 1009.6 |
| 20260510015559 | 27 | 169 | 1.6 | 4.8 | 0.00 | 0.36 | 0.36 | 77 | 1009.9 |
| 20260510015056 | 27 | 131 | 1.6 | 4.8 | 0.00 | 0.36 | 0.36 | 77 | 1009.3 |
| 20260510014552 | 27 | 117 | 1.6 | 4.8 | 0.00 | 0.36 | 0.36 | 76 | 1009.7 |
| 20260510014049 | 28 | 245 | 3.2 | 9.7 | 0.00 | 0.36 | 0.36 | 75 | 1009.3 |
| 20260510013543 | 28 | 180 | 3.2 | 4.8 | 0.00 | 0.36 | 0.36 | 75 | 1009.6 |
| 20260510013040 | 28 | 194 | 1.6 | 3.2 | 0.00 | 0.36 | 0.36 | 74 | 1009.3 |
| 20260510012533 | 28 | 200 | 1.6 | 1.6 | 0.00 | 0.36 | 0.36 | 74 | 1009.3 |
| 20260510012031 | 28 | 198 | 0.0 | 3.2 | 0.00 | 0.36 | 0.36 | 73 | 1009.2 |
| 20260510011530 | 28 | 200 | 0.0 | 1.6 | 0.00 | 0.36 | 0.36 | 73 | 1009.3 |
| 20260510011026 | 28 | 190 | 0.0 | 1.6 | 0.00 | 0.36 | 0.36 | 72 | 1009.1 |
| 20260510010523 | 28 | 149 | 1.6 | 3.2 | 0.00 | 0.36 | 0.36 | 72 | 1009.2 |
| 20260510010020 | 28 | 127 | 0.0 | 1.6 | 0.00 | 0.36 | 0.36 | 72 | 1008.8 |
| 20260510005515 | 28 | 191 | 0.0 | 0.0 | 0.00 | 0.36 | 0.36 | 72 | 1009.0 |
| 20260510005014 | 29 | 189 | 1.6 | 4.8 | 0.00 | 0.36 | 0.36 | 71 | 1009.3 |
| 20260510004511 | 29 | 184 | 0.0 | 3.2 | 0.00 | 0.36 | 0.36 | 70 | 1009.1 |
| 20260510004009 | 29 | 183 | 0.0 | 3.2 | 0.00 | 0.36 | 0.36 | 70 | 1008.9 |
| 20260510003505 | 29 | 183 | 0.0 | 1.6 | 0.00 | 0.36 | 0.36 | 69 | 1009.1 |
| 20260510003000 | 29 | 211 | 1.6 | 4.8 | 0.00 | 0.36 | 0.36 | 68 | 1009.0 |
| 20260510002456 | 29 | 172 | 3.2 | 4.8 | 0.00 | 0.36 | 0.36 | 68 | 1008.9 |
| 20260510001953 | 29 | 156 | 1.6 | 1.6 | 0.00 | 0.36 | 0.36 | 68 | 1008.9 |
| 20260510001451 | 30 | 74 | 1.6 | 3.2 | 0.00 | 0.36 | 0.36 | 68 | 1008.7 |
| 20260510000948 | 30 | 53 | 0.0 | 1.6 | 0.00 | 0.36 | 0.36 | 67 | 1008.8 |
| 20260510000444 | 30 | 123 | 1.6 | 3.2 | 0.00 | 0.36 | 0.36 | 66 | 1008.8 |
| 20260509235941 | 30 | 71 | 0.0 | 3.2 | 0.00 | 0.36 | 0.36 | 66 | 1008.7 |
| 20260509235437 | 30 | 18 | 3.2 | 3.2 | 0.00 | 0.36 | 0.36 | 66 | 1008.7 |
| 20260509234933 | 30 | 95 | 1.6 | 3.2 | 0.00 | 0.36 | 0.36 | 66 | 1008.5 |
| 20260509234430 | 30 | 113 | 1.6 | 4.8 | 0.00 | 0.36 | 0.36 | 65 | 1008.6 |
| 20260509233929 | 30 | 80 | 1.6 | 3.2 | 0.00 | 0.36 | 0.36 | 65 | 1008.6 |
| 20260509233426 | 30 | 180 | 0.0 | 4.8 | 0.00 | 0.36 | 0.36 | 64 | 1008.6 |
| 20260509232922 | 30 | 143 | 1.6 | 3.2 | 0.00 | 0.36 | 0.36 | 64 | 1008.4 |
| 20260509232420 | 30 | 138 | 1.6 | 3.2 | 0.00 | 0.36 | 0.36 | 63 | 1008.4 |
| 20260509231915 | 30 | 60 | 0.0 | 4.8 | 0.00 | 0.36 | 0.36 | 63 | 1008.5 |
| 20260509231412 | 30 | 22 | 1.6 | 4.8 | 0.00 | 0.36 | 0.36 | 63 | 1008.6 |
| 20260509230910 | 30 | 146 | 1.6 | 8.0 | 0.00 | 0.36 | 0.36 | 63 | 1008.5 |
| 20260509230407 | 30 | 24 | 1.6 | 3.2 | 0.00 | 0.36 | 0.36 | 62 | 1008.5 |
| 20260509225902 | 30 | 133 | 0.0 | 3.2 | 0.00 | 0.36 | 0.36 | 62 | 1008.6 |
| 20260509225359 | 30 | 92 | 0.0 | 4.8 | 0.00 | 0.36 | 0.36 | 61 | 1008.4 |
| 20260509224855 | 30 | 91 | 1.6 | 8.0 | 0.00 | 0.36 | 0.36 | 61 | 1008.6 |
| 20260509224351 | 30 | 159 | 1.6 | 3.2 | 0.00 | 0.36 | 0.36 | 60 | 1008.5 |
| 20260509223849 | 30 | 94 | 1.6 | 4.8 | 0.00 | 0.36 | 0.36 | 60 | 1008.3 |
| 20260509223345 | 30 | 165 | 3.2 | 4.8 | 0.00 | 0.36 | 0.36 | 58 | 1008.4 |
| 20260509222843 | 30 | 274 | 3.2 | 8.0 | 0.00 | 0.36 | 0.36 | 57 | 1008.4 |
| 20260509222343 | 30 | 119 | 1.6 | 3.2 | 0.00 | 0.36 | 0.36 | 54 | 1008.6 |
| 20260509221838 | 30 | 0 | 1.6 | 4.8 | 0.00 | 0.36 | 0.36 | 53 | 1008.5 |
| 20260509221337 | 30 | 79 | 0.0 | 1.6 | 0.00 | 0.36 | 0.36 | 53 | 1008.3 |
| 20260509220837 | 30 | 19 | 1.6 | 1.6 | 0.00 | 0.36 | 0.36 | 52 | 1008.3 |
| 20260509220333 | 30 | 190 | 1.6 | 4.8 | 0.00 | 0.36 | 0.36 | 52 | 1008.4 |
| 20260509215828 | 30 | 29 | 0.0 | 1.6 | 0.00 | 0.36 | 0.36 | 51 | 1008.3 |
| 20260509215326 | 30 | 92 | 3.2 | 3.2 | 0.00 | 0.36 | 0.36 | 53 | 1008.4 |
| 20260509214822 | 30 | 255 | 0.0 | 3.2 | 0.00 | 0.36 | 0.36 | 52 | 1008.7 |
| 20260509214319 | 29 | 279 | 0.0 | 3.2 | 0.00 | 0.36 | 0.36 | 52 | 1008.6 |
| 20260509213817 | 29 | 80 | 1.6 | 3.2 | 0.00 | 0.36 | 0.36 | 52 | 1008.8 |
| 20260509213312 | 28 | 170 | 3.2 | 9.7 | 0.00 | 0.36 | 0.36 | 54 | 1008.8 |
| 20260509212810 | 28 | 77 | 3.2 | 4.8 | 0.00 | 0.36 | 0.36 | 53 | 1008.9 |
| 20260509212307 | 28 | 239 | 1.6 | 3.2 | 0.00 | 0.36 | 0.36 | 55 | 1008.8 |
| 20260509211802 | 27 | 298 | 1.6 | 3.2 | 0.00 | 0.36 | 0.36 | 61 | 1008.9 |
| 20260509211259 | 27 | 281 | 1.6 | 4.8 | 0.00 | 0.36 | 0.36 | 61 | 1009.2 |
| 20260509210756 | 27 | 272 | 1.6 | 4.8 | 0.00 | 0.36 | 0.36 | 62 | 1009.2 |
| 20260509210254 | 27 | 220 | 1.6 | 3.2 | 0.00 | 0.36 | 0.36 | 66 | 1009.1 |
| 20260509205753 | 26 | 283 | 1.6 | 3.2 | 0.00 | 0.36 | 0.36 | 68 | 1009.1 |
| 20260509205248 | 25 | 271 | 3.2 | 4.8 | 0.00 | 0.36 | 0.36 | 71 | 1009.0 |
| 20260509204744 | 23 | 251 | 3.2 | 4.8 | 0.00 | 0.36 | 0.36 | 75 | 1009.0 |
| 20260509204240 | 23 | 106 | 1.6 | 9.7 | 0.00 | 0.36 | 0.36 | 81 | 1009.2 |
| 20260509203736 | 22 | 246 | 1.6 | 8.0 | 0.00 | 0.36 | 0.36 | 86 | 1009.4 |
| 20260509203235 | 22 | 216 | 1.6 | 14.5 | 0.00 | 0.36 | 0.36 | 88 | 1009.3 |
| 20260509202730 | 22 | 316 | 4.8 | 11.3 | 0.61 | 0.36 | 0.36 | 90 | 1009.3 |
| 20260509202226 | 23 | 158 | 4.8 | 16.1 | 0.89 | 0.36 | 0.36 | 88 | 1009.9 |
| 20260509201721 | 23 | 198 | 4.8 | 9.7 | 0.30 | 0.20 | 0.20 | 81 | 1009.8 |
| 20260509201218 | 25 | 75 | 8.0 | 20.9 | 0.79 | 0.20 | 0.20 | 82 | 1009.6 |
| 20260509200714 | 27 | 136 | 8.0 | 17.7 | 0.48 | 0.15 | 0.15 | 80 | 1009.7 |
| 20260509200209 | 28 | 69 | 8.0 | 16.1 | 0.00 | 0.08 | 0.08 | 71 | 1010.1 |
| 20260509195705 | 31 | 43 | 11.3 | 16.1 | 0.00 | 0.08 | 0.08 | 66 | 1009.8 |
| 20260509195201 | 31 | 106 | 3.2 | 9.7 | 0.00 | 0.08 | 0.08 | 66 | 1009.6 |
| 20260509194701 | 31 | 19 | 3.2 | 9.7 | 0.00 | 0.08 | 0.08 | 67 | 1009.6 |
| 20260509194158 | 31 | 80 | 4.8 | 4.8 | 0.00 | 0.08 | 0.08 | 64 | 1009.7 |
| 20260509193654 | 32 | 327 | 0.0 | 0.0 | 0.00 | 0.08 | 0.08 | 60 | 1009.5 |
| 20260509193149 | 33 | 302 | 0.0 | 0.0 | 0.00 | 0.08 | 0.08 | 59 | 1009.6 |
| 20260509192646 | 33 | 207 | 0.0 | 1.6 | 0.00 | 0.08 | 0.08 | 56 | 1009.8 |
| 20260509192141 | 33 | 308 | 0.0 | 1.6 | 0.00 | 0.08 | 0.08 | 59 | 1009.7 |
| 20260509191641 | 33 | 283 | 0.0 | 1.6 | 0.00 | 0.08 | 0.08 | 58 | 1009.6 |
| 20260509191138 | 32 | 259 | 0.0 | 3.2 | 0.00 | 0.08 | 0.08 | 61 | 1009.8 |
| 20260509190635 | 32 | 255 | 1.6 | 4.8 | 0.00 | 0.08 | 0.08 | 62 | 1009.9 |
| 20260509190132 | 32 | 10 | 0.0 | 1.6 | 0.00 | 0.08 | 0.08 | 64 | 1009.9 |
| 20260509185630 | 31 | 305 | 0.0 | 3.2 | 0.00 | 0.08 | 0.08 | 64 | 1010.0 |
| 20260509185125 | 31 | 285 | 1.6 | 4.8 | 0.00 | 0.08 | 0.08 | 64 | 1010.0 |
| 20260509184624 | 31 | 267 | 1.6 | 4.8 | 0.00 | 0.08 | 0.08 | 66 | 1010.0 |
| 20260509184120 | 31 | 211 | 4.8 | 8.0 | 0.00 | 0.08 | 0.08 | 66 | 1010.3 |
| 20260509183616 | 31 | 180 | 1.6 | 3.2 | 0.00 | 0.08 | 0.08 | 66 | 1010.2 |
| 20260509183111 | 31 | 29 | 3.2 | 8.0 | 0.00 | 0.08 | 0.08 | 65 | 1010.6 |
| 20260509182608 | 32 | 273 | 1.6 | 3.2 | 0.00 | 0.08 | 0.08 | 64 | 1010.5 |
| 20260509182105 | 32 | 274 | 0.0 | 1.6 | 0.00 | 0.08 | 0.08 | 66 | 1010.7 |
| 20260509181603 | 31 | 52 | 0.0 | 3.2 | 0.00 | 0.08 | 0.08 | 66 | 1011.0 |
| 20260509181100 | 32 | 268 | 1.6 | 3.2 | 0.00 | 0.08 | 0.08 | 64 | 1010.7 |
| 20260509180555 | 31 | 228 | 1.6 | 3.2 | 0.00 | 0.08 | 0.08 | 66 | 1010.7 |
| 20260509180053 | 32 | 281 | 1.6 | 3.2 | 0.00 | 0.08 | 0.08 | 66 | 1010.6 |
| 20260509175548 | 31 | 259 | 3.2 | 4.8 | 0.00 | 0.08 | 0.08 | 66 | 1011.0 |
| 20260509175046 | 31 | 152 | 1.6 | 3.2 | 0.00 | 0.08 | 0.08 | 65 | 1010.9 |
| 20260509174542 | 31 | 231 | 3.2 | 8.0 | 0.00 | 0.08 | 0.08 | 69 | 1011.0 |
| 20260509174038 | 31 | 288 | 0.0 | 1.6 | 0.00 | 0.08 | 0.08 | 68 | 1011.2 |
| 20260509173538 | 31 | 247 | 0.0 | 1.6 | 0.00 | 0.08 | 0.08 | 70 | 1011.4 |
| 20260509173034 | 31 | 290 | 0.0 | 3.2 | 0.00 | 0.08 | 0.08 | 70 | 1011.6 |
| 20260509172531 | 30 | 226 | 4.8 | 8.0 | 0.00 | 0.08 | 0.08 | 70 | 1011.5 |
| 20260509172027 | 30 | 175 | 1.6 | 1.6 | 0.00 | 0.08 | 0.08 | 71 | 1011.5 |
| 20260509171523 | 31 | 141 | 1.6 | 1.6 | 0.00 | 0.08 | 0.08 | 71 | 1011.4 |
| 20260509171020 | 30 | 264 | 0.0 | 1.6 | 0.00 | 0.08 | 0.08 | 74 | 1011.2 |
| 20260509170515 | 30 | 257 | 0.0 | 3.2 | 0.00 | 0.08 | 0.08 | 75 | 1011.3 |
| 20260509170012 | 29 | 246 | 1.6 | 1.6 | 0.00 | 0.08 | 0.08 | 76 | 1011.4 |
| 20260509165510 | 29 | 187 | 1.6 | 8.0 | 0.00 | 0.08 | 0.08 | 76 | 1011.4 |
| 20260509165006 | 29 | 206 | 1.6 | 1.6 | 0.00 | 0.08 | 0.08 | 77 | 1011.7 |
| 20260509164502 | 28 | 303 | 0.0 | 0.0 | 0.00 | 0.08 | 0.08 | 78 | 1011.7 |
| 20260509163958 | 28 | 266 | 0.0 | 1.6 | 0.00 | 0.08 | 0.08 | 77 | 1011.7 |
| 20260509163456 | 28 | 260 | 0.0 | 1.6 | 0.00 | 0.08 | 0.08 | 78 | 1011.6 |
| 20260509162955 | 28 | 257 | 0.0 | 1.6 | 0.00 | 0.08 | 0.08 | 78 | 1011.8 |
| 20260509162454 | 28 | 260 | 1.6 | 3.2 | 0.00 | 0.08 | 0.08 | 78 | 1011.7 |
| 20260509161949 | 28 | 284 | 0.0 | 1.6 | 0.00 | 0.08 | 0.08 | 78 | 1011.6 |
| 20260509161446 | 28 | 305 | 0.0 | 1.6 | 0.00 | 0.08 | 0.08 | 79 | 1011.7 |
| 20260509160941 | 28 | 298 | 0.0 | 4.8 | 0.00 | 0.08 | 0.08 | 80 | 1011.7 |
| 20260509160437 | 27 | 197 | 1.6 | 4.8 | 0.00 | 0.08 | 0.08 | 81 | 1011.7 |
| 20260509155932 | 27 | 226 | 1.6 | 3.2 | 0.00 | 0.08 | 0.08 | 82 | 1011.6 |
| 20260509155430 | 27 | 274 | 0.0 | 1.6 | 0.00 | 0.08 | 0.08 | 87 | 1011.5 |
| 20260509154926 | 26 | 287 | 0.0 | 1.6 | 0.00 | 0.08 | 0.08 | 91 | 1011.7 |
| 20260509154422 | 25 | 168 | 0.0 | 0.0 | 0.00 | 0.08 | 0.08 | 94 | 1011.5 |
| 20260509153919 | 25 | 239 | 0.0 | 0.0 | 0.00 | 0.08 | 0.08 | 98 | 1011.3 |
| 20260509153416 | 24 | 312 | 0.0 | 1.6 | 0.00 | 0.08 | 0.08 | 99 | 1011.5 |
| 20260509152913 | 24 | 284 | 0.0 | 3.2 | 0.00 | 0.08 | 0.08 | 99 | 1011.5 |
| 20260509152409 | 24 | 253 | 1.6 | 3.2 | 0.00 | 0.08 | 0.08 | 99 | 1011.8 |
| 20260509151906 | 24 | 269 | 3.2 | 4.8 | 0.00 | 0.08 | 0.08 | 99 | 1011.7 |
| 20260509151402 | 24 | 281 | 0.0 | 4.8 | 0.00 | 0.08 | 0.08 | 99 | 1011.4 |
| 20260509150901 | 23 | 203 | 0.0 | 8.0 | 0.00 | 0.08 | 0.08 | 99 | 1011.6 |
| 20260509150358 | 23 | 283 | 0.0 | 3.2 | 0.00 | 0.08 | 0.08 | 99 | 1011.8 |
| 20260509145856 | 23 | 348 | 0.0 | 3.2 | 0.00 | 0.08 | 0.08 | 99 | 1011.7 |
| 20260509145350 | 23 | 206 | 0.0 | 1.6 | 0.00 | 0.08 | 0.08 | 99 | 1011.7 |
| 20260509144847 | 23 | 155 | 1.6 | 3.2 | 0.00 | 0.08 | 0.08 | 99 | 1011.6 |
| 20260509144343 | 23 | 226 | 3.2 | 3.2 | 0.00 | 0.08 | 0.08 | 99 | 1011.5 |
| 20260509143841 | 23 | 255 | 0.0 | 1.6 | 0.00 | 0.08 | 0.08 | 99 | 1011.2 |
| 20260509143338 | 23 | 225 | 3.2 | 3.2 | 0.00 | 0.08 | 0.08 | 99 | 1011.3 |
| 20260509142834 | 22 | 220 | 3.2 | 3.2 | 0.00 | 0.08 | 0.08 | 99 | 1011.3 |
| 20260509142330 | 23 | 165 | 3.2 | 4.8 | 0.00 | 0.08 | 0.08 | 99 | 1011.2 |
| 20260509141826 | 23 | 155 | 0.0 | 3.2 | 0.00 | 0.08 | 0.08 | 99 | 1010.8 |
| 20260509141328 | 22 | 211 | 0.0 | 1.6 | 0.00 | 0.08 | 0.08 | 99 | 1011.0 |
| 20260509140820 | 22 | 175 | 1.6 | 3.2 | 0.00 | 0.08 | 0.08 | 99 | 1011.2 |
| 20260509140317 | 22 | 224 | 0.0 | 3.2 | 0.00 | 0.08 | 0.08 | 99 | 1011.3 |
| 20260509135815 | 23 | 197 | 1.6 | 1.6 | 0.00 | 0.08 | 0.08 | 99 | 1011.5 |
| 20260509135312 | 22 | 235 | 0.0 | 1.6 | 0.00 | 0.08 | 0.08 | 99 | 1011.6 |
| 20260509134809 | 22 | 282 | 0.0 | 0.0 | 0.00 | 0.08 | 0.08 | 99 | 1011.5 |
| 20260509134307 | 22 | 287 | 0.0 | 0.0 | 0.00 | 0.08 | 0.08 | 99 | 1011.6 |
| 20260509133803 | 22 | 286 | 0.0 | 0.0 | 0.00 | 0.08 | 0.08 | 99 | 1011.5 |
| 20260509133300 | 22 | 286 | 0.0 | 0.0 | 0.00 | 0.08 | 0.08 | 99 | 1011.3 |
| 20260509132759 | 22 | 287 | 0.0 | 0.0 | 0.00 | 0.08 | 0.08 | 99 | 1011.3 |
| 20260509132257 | 22 | 286 | 0.0 | 0.0 | 0.00 | 0.08 | 0.08 | 99 | 1011.5 |
| 20260509131753 | 22 | 285 | 0.0 | 0.0 | 0.00 | 0.08 | 0.08 | 99 | 1011.6 |
| 20260509131250 | 22 | 286 | 0.0 | 0.0 | 0.00 | 0.08 | 0.08 | 99 | 1011.4 |
| 20260509130746 | 22 | 283 | 0.0 | 0.0 | 0.00 | 0.08 | 0.08 | 99 | 1011.4 |
| 20260509130242 | 22 | 299 | 0.0 | 0.0 | 0.00 | 0.08 | 0.08 | 99 | 1011.4 |
| 20260509125739 | 22 | 299 | 0.0 | 0.0 | 0.00 | 0.08 | 0.08 | 99 | 1011.0 |
| 20260509125236 | 22 | 293 | 0.0 | 0.0 | 0.00 | 0.08 | 0.08 | 99 | 1010.9 |
| 20260509124732 | 22 | 285 | 0.0 | 0.0 | 0.00 | 0.08 | 0.08 | 99 | 1010.8 |
| 20260509124229 | 22 | 285 | 0.0 | 0.0 | 0.00 | 0.08 | 0.08 | 99 | 1010.6 |
| 20260509123727 | 22 | 285 | 0.0 | 0.0 | 0.00 | 0.08 | 0.08 | 99 | 1011.1 |
| 20260509123224 | 22 | 285 | 0.0 | 0.0 | 0.00 | 0.08 | 0.08 | 99 | 1011.0 |
| 20260509122719 | 22 | 285 | 0.0 | 0.0 | 0.00 | 0.08 | 0.08 | 99 | 1011.0 |
| 20260509122216 | 22 | 285 | 0.0 | 0.0 | 0.00 | 0.08 | 0.08 | 99 | 1010.9 |
| 20260509121713 | 22 | 284 | 0.0 | 0.0 | 0.00 | 0.08 | 0.08 | 99 | 1010.9 |
| 20260509121211 | 22 | 282 | 0.0 | 0.0 | 0.00 | 0.08 | 0.08 | 99 | 1011.0 |
| 20260509120709 | 22 | 291 | 0.0 | 0.0 | 0.00 | 0.08 | 0.08 | 99 | 1011.3 |
| 20260509120206 | 22 | 290 | 0.0 | 0.0 | 0.00 | 0.08 | 0.08 | 99 | 1011.5 |
| 20260509115704 | 22 | 297 | 0.0 | 0.0 | 0.00 | 0.08 | 0.08 | 99 | 1011.1 |
| 20260509115201 | 22 | 293 | 0.0 | 0.0 | 0.00 | 0.08 | 0.08 | 99 | 1011.1 |
| 20260509114659 | 22 | 294 | 0.0 | 0.0 | 0.00 | 0.08 | 0.08 | 99 | 1011.1 |
| 20260509114158 | 22 | 299 | 0.0 | 0.0 | 0.00 | 0.08 | 0.08 | 99 | 1011.1 |
| 20260509113656 | 22 | 296 | 0.0 | 0.0 | 0.00 | 0.08 | 0.08 | 99 | 1011.4 |
| 20260509113153 | 22 | 320 | 0.0 | 1.6 | 0.00 | 0.08 | 0.08 | 99 | 1011.6 |
| 20260509112649 | 22 | 301 | 0.0 | 0.0 | 0.00 | 0.08 | 0.08 | 99 | 1011.9 |
| 20260509112146 | 22 | 312 | 0.0 | 0.0 | 0.00 | 0.08 | 0.08 | 99 | 1011.8 |
| 20260509111644 | 22 | 309 | 0.0 | 0.0 | 0.13 | 0.08 | 0.08 | 99 | 1011.5 |
| 20260509111140 | 22 | 298 | 0.0 | 0.0 | 0.00 | 0.05 | 0.05 | 99 | 1011.7 |
| 20260509110637 | 22 | 298 | 0.0 | 0.0 | 0.00 | 0.05 | 0.05 | 99 | 1012.0 |
| 20260509110134 | 22 | 298 | 0.0 | 0.0 | 0.00 | 0.05 | 0.05 | 99 | 1012.0 |
| 20260509105633 | 22 | 15 | 0.0 | 0.0 | 0.00 | 0.05 | 0.05 | 99 | 1011.8 |
| 20260509105130 | 22 | 337 | 0.0 | 3.2 | 0.00 | 0.05 | 0.05 | 99 | 1012.1 |
| 20260509104627 | 22 | 345 | 0.0 | 1.6 | 0.00 | 0.05 | 0.05 | 99 | 1012.2 |
| 20260509104123 | 22 | 318 | 0.0 | 0.0 | 0.00 | 0.05 | 0.05 | 99 | 1012.0 |
| 20260509103621 | 22 | 326 | 0.0 | 0.0 | 0.00 | 0.05 | 0.05 | 99 | 1012.1 |
| 20260509103119 | 22 | 342 | 0.0 | 0.0 | 0.00 | 0.05 | 0.05 | 99 | 1012.0 |
| 20260509102616 | 22 | 328 | 0.0 | 0.0 | 0.00 | 0.05 | 0.05 | 99 | 1012.0 |
| 20260509102113 | 22 | 315 | 0.0 | 0.0 | 0.00 | 0.05 | 0.05 | 99 | 1011.8 |
| 20260509101609 | 22 | 319 | 0.0 | 0.0 | 0.00 | 0.05 | 0.05 | 99 | 1011.6 |
| 20260509101106 | 22 | 269 | 0.0 | 0.0 | 0.00 | 0.05 | 0.05 | 99 | 1011.3 |
| 20260509100603 | 22 | 266 | 0.0 | 0.0 | 0.00 | 0.05 | 0.05 | 99 | 1011.2 |
| 20260509100101 | 22 | 263 | 0.0 | 0.0 | 0.00 | 0.05 | 0.05 | 99 | 1010.7 |
| 20260509095557 | 22 | 268 | 0.0 | 0.0 | 0.00 | 0.05 | 0.05 | 99 | 1010.8 |
| 20260509095055 | 22 | 269 | 0.0 | 0.0 | 0.00 | 0.05 | 0.05 | 99 | 1010.8 |
| 20260509094550 | 22 | 269 | 0.0 | 0.0 | 0.00 | 0.05 | 0.05 | 99 | 1010.7 |
| 20260509094048 | 22 | 270 | 0.0 | 0.0 | 0.00 | 0.05 | 0.05 | 99 | 1010.8 |
| 20260509093547 | 22 | 268 | 0.0 | 0.0 | 0.00 | 0.05 | 0.05 | 99 | 1010.8 |
| 20260509093043 | 22 | 269 | 0.0 | 0.0 | 0.00 | 0.05 | 0.05 | 99 | 1010.7 |
| 20260509092541 | 22 | 262 | 0.0 | 0.0 | 0.00 | 0.05 | 0.05 | 99 | 1011.1 |
| 20260509092040 | 22 | 262 | 0.0 | 0.0 | 0.00 | 0.05 | 0.05 | 99 | 1010.7 |
| 20260509091537 | 22 | 329 | 0.0 | 0.0 | 0.00 | 0.05 | 0.05 | 99 | 1010.5 |
| 20260509091033 | 22 | 269 | 0.0 | 0.0 | 0.18 | 0.05 | 0.05 | 99 | 1010.6 |
| 20260509090531 | 22 | 270 | 0.0 | 0.0 | 0.18 | 0.05 | 0.05 | 99 | 1010.7 |
| 20260509090029 | 22 | 249 | 0.0 | 0.0 | 0.00 | 0.03 | 0.03 | 99 | 1010.6 |
| 20260509085525 | 22 | 241 | 0.0 | 1.6 | 0.00 | 0.03 | 0.03 | 98 | 1010.5 |
| 20260509085021 | 22 | 269 | 0.0 | 0.0 | 0.00 | 0.03 | 0.03 | 98 | 1010.7 |
| 20260509084519 | 22 | 264 | 0.0 | 0.0 | 0.18 | 0.03 | 0.03 | 98 | 1010.7 |
| 20260509084016 | 22 | 320 | 0.0 | 0.0 | 0.18 | 0.03 | 0.03 | 98 | 1010.9 |
| 20260509083513 | 22 | 33 | 0.0 | 1.6 | 0.00 | 0.00 | 0.00 | 98 | 1010.8 |
| 20260509083009 | 22 | 41 | 1.6 | 1.6 | 0.00 | 0.00 | 0.00 | 98 | 1010.8 |
| 20260509082507 | 22 | 24 | 1.6 | 1.6 | 0.00 | 0.00 | 0.00 | 97 | 1011.1 |
| 20260509082004 | 22 | 13 | 0.0 | 1.6 | 0.00 | 0.00 | 0.00 | 97 | 1011.1 |
| 20260509081501 | 23 | 359 | 0.0 | 0.0 | 0.00 | 0.00 | 0.00 | 97 | 1011.4 |
| 20260509080958 | 22 | 322 | 0.0 | 0.0 | 0.00 | 0.00 | 0.00 | 97 | 1011.2 |
| 20260509080456 | 23 | 96 | 0.0 | 0.0 | 0.00 | 0.00 | 0.00 | 97 | 1010.9 |
| 20260509075954 | 22 | 54 | 1.6 | 3.2 | 0.00 | 0.00 | 0.00 | 97 | 1011.0 |
| 20260509075451 | 23 | 314 | 0.0 | 0.0 | 0.00 | 0.00 | 0.00 | 97 | 1011.1 |
| 20260509074949 | 23 | 74 | 0.0 | 1.6 | 0.00 | 0.00 | 0.00 | 96 | 1010.8 |
| 20260509074446 | 23 | 113 | 0.0 | 1.6 | 0.00 | 0.00 | 0.00 | 96 | 1010.8 |
| 20260509073942 | 23 | 32 | 0.0 | 1.6 | 0.00 | 0.00 | 0.00 | 96 | 1010.7 |
| 20260509073438 | 23 | 211 | 0.0 | 1.6 | 0.00 | 0.00 | 0.00 | 96 | 1011.0 |
| 20260509072935 | 23 | 196 | 0.0 | 1.6 | 0.00 | 0.00 | 0.00 | 96 | 1011.1 |
| 20260509072432 | 23 | 164 | 1.6 | 1.6 | 0.00 | 0.00 | 0.00 | 96 | 1011.0 |
| 20260509071928 | 23 | 337 | 0.0 | 0.0 | 0.00 | 0.00 | 0.00 | 96 | 1011.0 |
| 20260509071425 | 23 | 235 | 0.0 | 1.6 | 0.00 | 0.00 | 0.00 | 96 | 1011.1 |
| 20260509070923 | 23 | 248 | 0.0 | 0.0 | 0.00 | 0.00 | 0.00 | 96 | 1011.1 |
| 20260509070420 | 23 | 245 | 0.0 | 0.0 | 0.00 | 0.00 | 0.00 | 96 | 1011.2 |
| 20260509065915 | 23 | 245 | 0.0 | 0.0 | 0.00 | 0.00 | 0.00 | 96 | 1011.3 |
| 20260509065411 | 23 | 245 | 0.0 | 3.2 | 0.00 | 0.00 | 0.00 | 96 | 1010.8 |
| 20260509064908 | 23 | 169 | 0.0 | 1.6 | 0.00 | 0.00 | 0.00 | 96 | 1010.8 |
| 20260509064405 | 23 | 231 | 0.0 | 3.2 | 0.00 | 0.00 | 0.00 | 96 | 1010.8 |
| 20260509063903 | 23 | 170 | 1.6 | 3.2 | 0.00 | 0.00 | 0.00 | 95 | 1010.6 |
| 20260509063359 | 23 | 307 | 0.0 | 3.2 | 0.00 | 0.00 | 0.00 | 95 | 1010.7 |
| 20260509062856 | 23 | 230 | 0.0 | 1.6 | 0.00 | 0.00 | 0.00 | 95 | 1010.9 |
| 20260509062353 | 23 | 291 | 0.0 | 0.0 | 0.00 | 0.00 | 0.00 | 95 | 1011.1 |
| 20260509061850 | 23 | 232 | 0.0 | 3.2 | 0.00 | 0.00 | 0.00 | 95 | 1011.0 |
| 20260509061349 | 22 | 200 | 1.6 | 3.2 | 0.00 | 0.00 | 0.00 | 95 | 1011.0 |
| 20260509060845 | 22 | 217 | 1.6 | 3.2 | 0.00 | 0.00 | 0.00 | 95 | 1010.6 |
| 20260509060342 | 23 | 213 | 3.2 | 3.2 | 0.00 | 0.00 | 0.00 | 94 | 1010.6 |
| 20260509055837 | 23 | 141 | 3.2 | 4.8 | 0.00 | 0.00 | 0.00 | 94 | 1010.6 |
| 20260509055333 | 23 | 203 | 4.8 | 9.7 | 0.00 | 0.00 | 0.00 | 94 | 1010.6 |
| 20260509054830 | 23 | 213 | 3.2 | 8.0 | 0.00 | 0.00 | 0.00 | 93 | 1010.9 |
| 20260509054327 | 23 | 228 | 1.6 | 3.2 | 0.00 | 0.00 | 0.00 | 93 | 1010.7 |
| 20260509053825 | 23 | 183 | 3.2 | 4.8 | 0.00 | 0.00 | 0.00 | 93 | 1010.8 |
| 20260509053322 | 23 | 217 | 1.6 | 4.8 | 0.00 | 0.00 | 0.00 | 93 | 1010.8 |
| 20260509052820 | 23 | 229 | 1.6 | 8.0 | 0.00 | 0.00 | 0.00 | 92 | 1010.9 |
| 20260509052317 | 23 | 211 | 3.2 | 4.8 | 0.00 | 0.00 | 0.00 | 92 | 1010.5 |
| 20260509051815 | 23 | 209 | 1.6 | 3.2 | 0.00 | 0.00 | 0.00 | 92 | 1010.5 |
| 20260509051313 | 23 | 192 | 1.6 | 4.8 | 0.00 | 0.00 | 0.00 | 92 | 1010.3 |
| 20260509050809 | 23 | 140 | 0.0 | 4.8 | 0.00 | 0.00 | 0.00 | 92 | 1009.9 |
| 20260509050306 | 23 | 207 | 1.6 | 3.2 | 0.00 | 0.00 | 0.00 | 92 | 1010.3 |
| 20260509045803 | 23 | 168 | 4.8 | 8.0 | 0.00 | 0.00 | 0.00 | 92 | 1010.4 |